DECAYED

STARLINK-1924, 46755 (Decayed)

Orbit data source: Space-Track

STARLINK-1924, 46755 was a payload satellite owned by SpaceX/Seattle (US) in LEO that was launched on Sat, 24 Oct 2020 UTC via an FALCON 9 launch vehicle from the Air Force Eastern Test Range (AFETR). Payload-class satellites include a variety of spacecraft equipped with specific instruments for various scientific and technological missions. These include communications satellites like Starlink; space stations such as the ISS; scientific satellites like the Hubble; Earth observation satellites from companies like Planet Labs, Umbra, and HawkEye 360; GPS; miniature CubeSats for education and research; and military/defense satellites.

Not visible in the next 10 days
Identifier
46755, 2020-074S
Orbit
Decayed
Country
Flag of USUS
Related business
Manufacturer
SpaceX/Seattle
Mission
Decayed Commercial Communications
Bus & Motor
STARLINK, Unknown motor
Mass
260 kg wet, ~248 kg dry
Launch date (UTC)
2020-10-24 (6 years ago)
Launch vehicle
FALCON 9
Launch site
Air Force Eastern Test Range (AFETR)
Object type
Payload
Rocket body
Debris
Shape & HBR
Box + 1 Pan, 10.1 m
Radar Cross Section
13.562 m², Large (>1 m²)

Expand to show TLE details & history
Last TLE update: 1 year ago

TLE from 1 year ago
0 STARLINK-1924
1 46755U 20074S   25196.21897220  .11392517  12494-4  61470-3 0  9998
2 46755  53.0267 261.5072 0008635 302.2306 168.7790 16.41959269261541
Epoch: 2025-07-15T05:15Z
TLE epoch observation values (Epoch: 2025-07-15T05:15:19.198Z)
Latitude
48.37336°
Longitude
11.98106°
Altitude
171.525 km
Speed
7.806 km/s
True Right ascension
01h 36m 30s
True Declination
48° 11' 14"
Sunlit
Object was in daylight at epoch
Visualization orbit readout
Latitude
Unknown
Longitude
Unknown
Altitude
Unknown
Speed
Unknown
Apparent Right ascension
Unknown
Apparent Declination
Unknown
Sunlit
N/A
Visualization observer readout
Local Sidereal Time
01:29:10
Azimuth
Unknown
Elevation
Unknown
Doppler factor
Unknown
Orbital elements
Apogee altitude
166.533 km
Perigee altitude
155.24 km
Semi-major axis
6,539.024 km
Eccentricity
0.00086
Inclination
53.0267°
RAAN
261.5072°
Arg. of periapsis
302.2306°
True anomaly
168.79823°
Mean anomaly
168.779°
Eccentric anomaly
168.78862°
Mean motion
4.10463 °/min
Orbital period
87.71 mins
BSTAR
0.0006147
Loading maneuver chart data...
Computing Atmospheric mass density...

Documentation

Showing up to 5 results
|